• In Hungary
  • List of Countries
  • For 7 days
  • Water Temperature
  • Satellite Maps
  • Weather Map
  • News
  • Weather Widgets
  • user-avatar
    Login

    Hourly Weather Polakowice

    Today, 19 June, Tuesday

    Time Temperature Precipitation Wind Pressure Humidity
    00:00 +18°C° 0 mm 1 mps 753 mmHg 77%
    01:00 +16°C° 0 mm 2 mps 753 mmHg 78%
    02:00 +16°C° 0 mm 2 mps 753 mmHg 80%
    03:00 +16°C° 0 mm 2 mps 753 mmHg 81%
    04:00 +15°C° 0 mm 2 mps 753 mmHg 83%
    05:00 +17°C° 0 mm 2 mps 753 mmHg 79%
    06:00 +19°C° 0 mm 2 mps 754 mmHg 75%
    07:00 +20°C° 0 mm 2 mps 754 mmHg 70%
    08:00 +22°C° 0 mm 3 mps 754 mmHg 66%
    09:00 +24°C° 0 mm 3 mps 754 mmHg 62%
    10:00 +25°C° 0 mm 3 mps 754 mmHg 58%
    11:00 +25°C° 0.1 mm 3 mps 754 mmHg 58%
    12:00 +26°C° 0.1 mm 3 mps 754 mmHg 59%
    13:00 +26°C° 0.1 mm 3 mps 754 mmHg 59%
    14:00 +26°C° 0.1 mm 3 mps 754 mmHg 61%
    15:00 +25°C° 0.1 mm 3 mps 754 mmHg 63%
    16:00 +25°C° 0.1 mm 3 mps 753 mmHg 65%
    17:00 +24°C° 0 mm 3 mps 754 mmHg 68%
    18:00 +24°C° 0 mm 2 mps 754 mmHg 70%
    19:00 +23°C° 0 mm 2 mps 754 mmHg 73%
    20:00 +21°C° 0 mm 2 mps 754 mmHg 76%
    21:00 +21°C° 0 mm 1 mps 754 mmHg 79%
    22:00 +19°C° 0 mm 1 mps 755 mmHg 81%
    23:00 +19°C° 0 mm 1 mps 755 mmHg 83%

    Tomorrow, 20 June, Wednesday

    Time Temperature Precipitation Wind Pressure Humidity
    00:00 +18°C° 0 mm 1 mps 755 mmHg 84%
    01:00 +18°C° 0 mm 1 mps 755 mmHg 85%
    02:00 +16°C° 0 mm 1 mps 755 mmHg 87%
    03:00 +16°C° 0 mm 1 mps 755 mmHg 88%
    04:00 +16°C° 0 mm 1 mps 755 mmHg 90%
    05:00 +18°C° 0 mm 1 mps 755 mmHg 85%
    06:00 +20°C° 0 mm 1 mps 755 mmHg 80%
    07:00 +22°C° 0 mm 1 mps 755 mmHg 75%
    08:00 +23°C° 0.1 mm 1 mps 755 mmHg 71%
    09:00 +24°C° 0.1 mm 1 mps 755 mmHg 67%
    10:00 +26°C° 0.1 mm 1 mps 755 mmHg 63%
    11:00 +26°C° 0.1 mm 1 mps 755 mmHg 61%
    12:00 +27°C° 0.1 mm 1 mps 755 mmHg 60%
    13:00 +27°C° 0.1 mm 1 mps 754 mmHg 59%
    14:00 +27°C° 0 mm 1 mps 754 mmHg 58%
    15:00 +28°C° 0 mm 1 mps 754 mmHg 57%
    16:00 +28°C° 0 mm 1 mps 753 mmHg 56%
    17:00 +27°C° 0 mm 1 mps 753 mmHg 61%
    18:00 +26°C° 0 mm 1 mps 753 mmHg 66%
    19:00 +23°C° 0 mm 0 mps 753 mmHg 71%
    20:00 +24°C° 0 mm 1 mps 753 mmHg 74%
    21:00 +23°C° 0 mm 1 mps 753 mmHg 77%
    22:00 +21°C° 0 mm 1 mps 753 mmHg 80%
    23:00 +21°C° 0 mm 1 mps 752 mmHg 82%

    Day after tomorrow, 21 June, Thursday

    Time Temperature Precipitation Wind Pressure Humidity
    00:00 +20°C° 0 mm 1 mps 752 mmHg 85%
    01:00 +20°C° 0 mm 1 mps 752 mmHg 87%
    02:00 +20°C° 0 mm 1 mps 751 mmHg 87%
    03:00 +19°C° 0 mm 1 mps 751 mmHg 88%
    04:00 +18°C° 0 mm 2 mps 751 mmHg 89%
    05:00 +20°C° 0 mm 2 mps 750 mmHg 83%
    06:00 +23°C° 0 mm 2 mps 750 mmHg 78%
    07:00 +24°C° 0 mm 2 mps 749 mmHg 72%
    08:00 +26°C° 0.1 mm 2 mps 749 mmHg 67%
    09:00 +27°C° 0.1 mm 2 mps 748 mmHg 62%
    10:00 +28°C° 0.1 mm 3 mps 748 mmHg 57%
    11:00 +29°C° 0 mm 3 mps 747 mmHg 55%
    12:00 +30°C° 0 mm 3 mps 746 mmHg 53%
    13:00 +30°C° 0 mm 4 mps 745 mmHg 51%
    14:00 +30°C° 0.1 mm 4 mps 745 mmHg 53%
    15:00 +29°C° 0.1 mm 4 mps 744 mmHg 56%
    16:00 +29°C° 0.1 mm 4 mps 743 mmHg 58%
    17:00 +26°C° 0.9 mm 5 mps 744 mmHg 67%
    18:00 +23°C° 0.9 mm 6 mps 744 mmHg 76%
    19:00 +20°C° 0.9 mm 7 mps 744 mmHg 84%
    20:00 +17°C° 0.1 mm 7 mps 745 mmHg 84%
    21:00 +14°C° 0.1 mm 6 mps 746 mmHg 83%
    22:00 +12°C° 0.1 mm 5 mps 747 mmHg 82%
    23:00 +12°C° 0 mm 5 mps 748 mmHg 80%

    22 June, Friday

    Time Temperature Precipitation Wind Pressure Humidity
    00:00 +10°C° 0 mm 6 mps 748 mmHg 77%
    01:00 +10°C° 0 mm 6 mps 749 mmHg 74%
    02:00 +9°C° 0 mm 6 mps 749 mmHg 75%
    03:00 +9°C° 0 mm 6 mps 749 mmHg 75%
    04:00 +8°C° 0 mm 6 mps 749 mmHg 75%
    05:00 +9°C° 0 mm 6 mps 750 mmHg 73%
    06:00 +10°C° 0 mm 7 mps 750 mmHg 70%
    07:00 +11°C° 0 mm 7 mps 750 mmHg 67%
    08:00 +12°C° 0 mm 7 mps 750 mmHg 63%
    09:00 +14°C° 0 mm 7 mps 750 mmHg 59%
    10:00 +15°C° 0 mm 7 mps 750 mmHg 54%
    11:00 +15°C° 0 mm 7 mps 750 mmHg 55%
    12:00 +15°C° 0 mm 7 mps 750 mmHg 56%
    13:00 +15°C° 0 mm 7 mps 750 mmHg 56%
    14:00 +15°C° 0 mm 6 mps 750 mmHg 57%
    15:00 +15°C° 0 mm 6 mps 750 mmHg 58%
    16:00 +15°C° 0 mm 6 mps 750 mmHg 59%
    17:00 +14°C° 0.1 mm 5 mps 750 mmHg 64%
    18:00 +13°C° 0.1 mm 5 mps 750 mmHg 70%
    19:00 +13°C° 0.1 mm 4 mps 750 mmHg 75%
    20:00 +12°C° 0 mm 4 mps 750 mmHg 80%
    21:00 +11°C° 0 mm 4 mps 750 mmHg 85%
    22:00 +10°C° 0 mm 3 mps 751 mmHg 89%
    23:00 +10°C° 0 mm 4 mps 751 mmHg 90%

    23 June, Saturday

    Time Temperature Precipitation Wind Pressure Humidity
    00:00 +8°C° 0 mm 4 mps 750 mmHg 91%
    01:00 +8°C° 0 mm 4 mps 750 mmHg 92%
    02:00 +8°C° 0 mm 4 mps 751 mmHg 92%
    03:00 +10°C° 0 mm 4 mps 751 mmHg 92%
    04:00 +10°C° 0 mm 4 mps 751 mmHg 92%
    05:00 +10°C° 0.1 mm 4 mps 751 mmHg 89%
    06:00 +10°C° 0.1 mm 5 mps 751 mmHg 86%
    07:00 +11°C° 0.1 mm 6 mps 751 mmHg 83%
    08:00 +11°C° 0.1 mm 6 mps 751 mmHg 79%
    09:00 +13°C° 0.1 mm 6 mps 751 mmHg 75%
    10:00 +14°C° 0.1 mm 6 mps 751 mmHg 70%
    11:00 +15°C° 0.1 mm 6 mps 751 mmHg 67%
    12:00 +15°C° 0.1 mm 6 mps 751 mmHg 63%
    13:00 +16°C° 0.1 mm 6 mps 751 mmHg 59%
    14:00 +16°C° 0.1 mm 6 mps 751 mmHg 59%
    15:00 +17°C° 0.1 mm 6 mps 751 mmHg 59%
    16:00 +17°C° 0.1 mm 5 mps 751 mmHg 60%
    17:00 +16°C° 0 mm 5 mps 751 mmHg 64%
    18:00 +15°C° 0 mm 4 mps 751 mmHg 69%
    19:00 +14°C° 0 mm 3 mps 752 mmHg 73%
    20:00 +13°C° 0 mm 3 mps 752 mmHg 75%
    21:00 +13°C° 0 mm 3 mps 752 mmHg 77%
    22:00 +12°C° 0 mm 3 mps 753 mmHg 79%
    23:00 +11°C° 0 mm 3 mps 753 mmHg 80%

    24 June, Sunday

    Time Temperature Precipitation Wind Pressure Humidity
    00:00 +11°C° 0 mm 3 mps 753 mmHg 81%
    01:00 +11°C° 0 mm 4 mps 753 mmHg 82%
    02:00 +11°C° 0 mm 3 mps 753 mmHg 83%
    03:00 +10°C° 0 mm 3 mps 753 mmHg 85%
    04:00 +10°C° 0 mm 3 mps 753 mmHg 87%
    05:00 +11°C° 0 mm 3 mps 753 mmHg 84%
    06:00 +12°C° 0 mm 3 mps 753 mmHg 81%
    07:00 +13°C° 0 mm 3 mps 754 mmHg 78%
    08:00 +14°C° 0.1 mm 3 mps 754 mmHg 75%
    09:00 +16°C° 0.1 mm 3 mps 754 mmHg 71%
    10:00 +17°C° 0.1 mm 3 mps 754 mmHg 68%
    11:00 +18°C° 0.3 mm 3 mps 754 mmHg 65%
    12:00 +18°C° 0.3 mm 3 mps 753 mmHg 63%
    13:00 +19°C° 0.3 mm 3 mps 753 mmHg 61%
    14:00 +19°C° 0.2 mm 2 mps 753 mmHg 60%
    15:00 +19°C° 0.2 mm 2 mps 753 mmHg 58%
    16:00 +20°C° 0.2 mm 2 mps 753 mmHg 56%
    17:00 +19°C° 0 mm 2 mps 753 mmHg 60%
    18:00 +19°C° 0 mm 1 mps 753 mmHg 63%
    19:00 +19°C° 0 mm 1 mps 753 mmHg 67%
    20:00 +16°C° 0 mm 1 mps 754 mmHg 70%
    21:00 +14°C° 0 mm 1 mps 754 mmHg 73%
    22:00 +13°C° 0 mm 1 mps 754 mmHg 76%
    23:00 +12°C° 0 mm 1 mps 754 mmHg 78%
    Show more